FALCON 9 DEB (48700 NORAD) Tracking and Keplerian Element Data

This shows tracking and keplerian element data for the satellite.

Feedback or suggestion? Click here.




ElementValue
Catalog48700
NameFALCON 9 DEB
Epoch Orbit379
Epoch Day170.34118135
Epoch Year2021
RAAN303.3627
Inclination53.0434
Eccentricity0.0017097
Argument of Perigee287.5182
Mean Anonmoly72.3986
Mean Motion16.17186611
Decay Rate0.00590258
L11 48700U 21044BQ 21170.34118135 .00590258 11733-4 35940-3 0 9999
L22 48700 53.0434 303.3627 0017097 287.5182 72.3986 16.17186611 3793

Live tracking and technical data element details for FALCON 9 DEB (NORAD 48700). FALCON 9 DEB can be tracked NOW for your location showing map with azimuth and elevation plus other details from your city location.

Track the satellite on the map from your city or location and see movement details for azimuth, elevation, latitude, longitude, range, height, and movement on the map or in text.







IsCatalogInMostPopularTable: catalog: 48700, numindb: 3
Update: records affected: 1



GetName: 48700 FALCON 9 DEB

Hit Count: updated at: Mon, 21 Jun 2021 04:57:39 GMT